Location: La Sioule Rivi�re
(46.3664°N, 3.3197°E)
Time: 12:28:25
(UTC+00:00)

SL-4 R/B - Pass Details

Date: 29 October 2020
Orbit: 427 x 665 km, 51.6° (Epoch: 23 November)

Event Time Altitude Azimuth Distance (km) Brightness Sun altitude
Rises 19:07:47 0° 296° (WNW) 2,472 6.5 -26.7°
Reaches altitude 10° 19:09:51 10° 296° (WNW) 1,625 5.3 -27.0°
Enters shadow 19:11:51 31° 293° (WNW) 859 3.5 -27.4°
